Regional Weather Roundup
Issued by NWS Bismarck, ND

Current Version | Previous Version | Text Only | Print | Product List | Glossary On
Versions: 1 2 3 4 5 6 7 8 9 10 11 12 13 14 15 16 17 18 19 20 21 22 23 24 25 26 27 28 29 30 31 32 33 34 35 36 37 38 39 40 41 42 43 44 45 46 47 48 49 50
000
ASUS43 KBIS 021710
RWRBIS

NWR BROADCAST TEXT
NATIONAL WEATHER SERVICE BISMARCK ND
1200 PM CDT SUN AUG 02 2015

NOTE: "FAIR" INDICATES FEW OR NO CLOUDS BELOW 12,000 FEET WITH NO
SIGNIFICANT WEATHER AND/OR OBSTRUCTIONS TO VISIBILITY.


CITY           SKY/WX    TMP DP  RH WIND       PRES   REMARKS
WILLISTON      MOSUNNY   75  53  46 VRB7      30.01S
MINOT          MOSUNNY   72  51  47 N12       29.94R
MINOT AFB      SUNNY     74  51  43 N9        29.93R
BISMARCK       MOSUNNY   76  56  49 NW13G22   29.95S
DICKINSON      SUNNY     74  53  48 N14       30.00S
GARRISON         N/A     72  56  57 N13G20    29.96R
HETTINGER ARPT SUNNY     77  48  35 N16       30.01S
JAMESTOWN      PTSUNNY   71  58  63 N12       29.88R
CROSBY         FAIR      72  54  53 N10G16    30.01S
HARVEY         FAIR      73  55  53 N17       29.91S
HAZEN          FAIR      73  52  46 N16       29.98R
LINTON         FAIR      77  57  50 N14G22    29.94S
OAKES            N/A     75  59  57 N14       29.86R
STANLEY        FAIR      70  55  60 N9G17     30.00R
$$

CITY           SKY/WX    TMP DP  RH WIND       PRES   REMARKS
GRAND FORKS    MOSUNNY   74  54  49 N13G23    29.81R
GRAND FORKS AF MOSUNNY   72  55  54 NW12      29.83R
DEVILS LAKE    SUNNY     72  50  46 N17G23    29.88R
FARGO          MOSUNNY   76  58  53 N20G25    29.81R
CAVALIER       FAIR      72  48  43 N13G18    29.83R
GRAFTON        FAIR      72  55  56 NW15G21   29.82S
GWINNER        FAIR      75  57  53 N16       29.85R
LANGDON        FAIR      72  46  40 N16G23    29.87S
ROLLA            N/A     68  46  45 N17G26    29.92R
WALHALLA       FAIR      72  46  40 MISG      29.83F
$$

CITY           SKY/WX    TMP DP  RH WIND       PRES   REMARKS
ABERDEEN       SUNNY     80  59  48 N14       29.86R
MOBRIDGE       SUNNY     79  57  46 N14G22    29.91S
BUFFALO          N/A     78  49  35 NE15      29.96R
RAPID CITY     MOSUNNY   77  53  43 N7        30.01S
GLASGOW        SUNNY     76  49  38 NW7       30.04S
SIDNEY         SUNNY    N/A N/A N/A N9        30.01S
WOLF POINT     SUNNY     79  48  33 N12       30.03S
GLENDIVE         N/A    N/A N/A N/A MISG        N/A
MILES CITY     SUNNY     78  50  37 NE14      30.02S
BAKER          SUNNY     78  48  34 NE15      30.04S
$$

CITY           SKY/WX    TMP DP  RH WIND       PRES   REMARKS
BILLINGS       MOSUNNY   76  50  40 N9G16     30.08R
GREAT FALLS    SUNNY     71  53  52 W9        30.10S
REGINA         MOSUNNY   73  52  46 NW9G18    30.02S
ESTEVAN        MOSUNNY   72  52  49 NW15G25   29.98F
$$




USA.gov is the U.S. government's official web portal to all federal, state and local government web resources and services.